Temp
18 19 19 20 20 20 19 19 19 19 19 19 20 20 20 20 21 21 19 27 28 27 27 27 27 28 27 26 26 23 22 22 26 27 29 29 28 25 24 23 22 23 23 21 21
18 18 19 19 20 20 20 20 20 19 19 20 20 20 20 20 20 17 28 27 28 26 27 26 26 26 23 26 24 22 20 23 25 27 29 28 27 25 24 22 22 22 22 22 22
18 18 19 19 20 20 21 21 20 20 20 20 20 20 20 20 18 23 28 28 27 26 26 26 26 26 26 25 26 24 23 24 27 26 28 29 26 26 23 22 22 21 22 22 21
18 18 18 19 20 20 21 21 21 21 21 21 21 21 20 19 25 28 29 29 27 26 26 26 25 25 25 26 26 27 25 27 28 27 29 28 26 25 23 23 24 23 22 20 18
18 18 19 19 20 20 21 21 21 21 21 21 21 20 20 19 20 28 28 28 26 26 25 25 25 25 26 26 27 26 27 26 26 23 23 26 23 22 22 23 22 20 19 18 17
17 18 18 19 20 20 21 21 22 22 21 21 21 20 19 22 28 28 28 27 26 26 25 25 26 24 26 26 27 28 27 27 24 23 25 25 24 23 21 21 19 18 17 16 16
17 17 18 19 20 21 21 22 22 22 22 22 21 19 18 21 28 28 28 28 28 27 25 27 27 26 25 27 27 27 28 29 24 23 23 23 22 21 21 20 19 18 17 16 15
17 18 18 19 20 20 22 22 23 23 22 22 20 18 19 27 28 28 28 28 28 27 28 29 28 26 28 28 26 27 25 26 25 23 24 23 21 21 21 19 18 18 17 16 15
16 17 18 19 19 20 22 23 23 23 22 21 19 18 21 26 26 30 28 27 29 29 28 28 29 26 25 25 23 22 26 26 27 26 23 23 22 21 20 19 18 17 16 16 15
16 17 18 19 20 20 23 23 22 21 19 18 19 20 23 27 29 30 30 29 27 29 28 28 22 23 20 22 24 26 26 26 26 26 22 20 20 20 20 19 17 16 16 15 14
16 17 18 19 20 21 23 21 19 20 19 23 23 23 25 29 29 30 30 28 28 26 26 25 24 23 25 24 26 27 26 26 24 23 21 21 20 19 18 17 16 16 15 14 14
15 16 18 19 19 21 21 19 23 24 21 22 23 23 26 27 26 27 30 28 28 26 26 24 23 25 25 25 25 25 27 26 23 23 21 20 19 18 17 17 16 16 15 14 14
15 15 17 19 20 19 19 22 24 23 21 23 24 24 25 26 26 26 28 27 27 26 26 24 26 27 27 28 27 27 27 27 22 22 21 21 20 19 18 17 17 16 15 15 14
15 15 16 18 18 18 19 23 23 23 19 23 25 26 27 28 28 29 29 27 27 26 25 24 25 27 28 28 27 27 28 26 23 21 20 22 20 19 18 17 17 16 14 14 14
15 15 16 14 16 15 24 23 23 23 21 27 26 29 26 27 29 30 29 28 27 28 28 26 28 27 27 29 27 28 28 27 26 23 23 23 18 18 17 16 16 15 14 14 14
15 16 15 14 13 22 22 23 23 20 20 26 27 27 27 27 29 29 29 29 28 28 27 26 28 28 28 26 27 26 26 21 19 20 22 24 21 19 17 17 16 15 15 15 14
16 17 14 11 17 22 22 20 19 19 25 27 27 26 26 26 28 29 27 27 25 26 25 26 27 29 29 27 25 23 20 20 22 20 21 21 20 17 19 18 17 16 15 15 14
17 19 19 19 21 20 21 19 21 22 23 27 27 26 26 26 26 27 26 25 26 25 23 24 25 28 29 27 26 24 22 19 23 20 21 20 20 18 17 17 16 16 15 14 13
17 18 16 22 21 19 17 18 19 21 26 26 26 25 25 27 27 26 24 24 25 25 24 24 26 27 27 27 26 25 22 22 20 19 19 18 18 18 16 15 16 14 14 13 11
11 12 16 21 21 19 17 18 20 23 25 26 25 26 24 26 26 25 24 26 27 25 24 24 24 26 27 26 25 25 22 22 17 22 22 19 18 18 16 15 15 14 14 13 10
11 13 19 20 21 16 17 17 21 24 26 25 25 26 26 26 25 23 25 27 26 25 25 22 22 24 25 25 24 23 22 18 18 17 18 19 18 18 17 16 16 15 14 12 10
7 16 21 21 18 13 17 19 23 24 25 25 25 26 26 26 25 25 25 26 26 24 25 22 19 21 24 23 23 24 23 19 16 20 16 16 16 17 17 16 16 15 14 11 9
5 8 20 21 18 17 18 22 23 24 24 25 26 27 27 27 25 24 24 23 23 24 23 22 19 19 21 21 23 25 24 19 16 15 17 16 17 16 15 15 15 13 11 10 9
7 13 13 12 14 18 18 20 22 24 24 24 25 25 25 25 24 23 24 22 23 21 19 19 17 19 19 21 21 23 24 21 18 13 18 17 18 17 15 15 13 12 10 9 8
8 11 12 13 15 14 16 18 20 21 22 22 25 26 25 24 24 22 22 23 22 21 20 19 20 21 21 22 23 23 22 22 20 19 18 19 18 16 14 14 12 11 10 9 8
8 8 8 10 12 15 14 17 19 18 21 22 23 23 24 24 23 21 21 21 22 22 21 17 18 21 22 22 22 22 22 21 21 18 18 17 18 16 13 12 12 11 11 9 8
6 7 7 10 12 14 14 15 18 16 19 22 23 22 23 23 22 22 21 19 21 20 19 18 17 16 19 20 20 19 21 22 22 19 17 18 17 14 13 14 12 11 11 10 9
Height
817 814 811 808 806 804 802 800 797 795 793 792 790 789 787 784 781 778 775 768 767 769 769 770 770 771 771 774 774 779 815 828 807 800 789 777 783 784 787 791 794 792 792 798 801
818 815 811 808 805 802 800 798 796 794 792 790 789 788 785 782 778 773 764 764 767 768 769 770 772 771 778 777 780 794 819 810 787 780 781 781 780 787 795 799 801 798 799 801 804
818 815 811 808 804 801 798 796 794 792 791 790 788 787 785 782 779 765 761 762 766 768 770 771 772 772 780 779 781 790 803 789 776 776 775 777 784 785 797 808 799 798 802 806 808
818 815 811 807 803 800 797 795 793 791 790 788 787 786 784 783 787 761 761 761 765 768 770 771 772 778 785 786 778 788 780 777 766 773 772 778 779 792 796 798 799 803 806 809 812
818 814 810 806 803 799 796 792 791 789 788 787 786 786 784 785 774 760 761 762 765 767 769 771 774 778 785 781 779 784 775 770 763 774 777 771 792 799 804 801 805 809 809 812 815
818 813 809 805 801 798 794 791 789 787 787 785 785 785 785 788 762 760 761 761 763 766 767 768 769 772 776 779 780 770 769 767 776 778 781 783 795 793 812 810 812 814 818 820 822
816 812 807 803 799 795 792 789 786 785 785 784 783 784 785 775 761 761 761 761 762 763 765 764 765 771 773 776 769 768 776 769 783 782 792 783 811 815 812 813 818 821 824 825 826
815 811 806 802 797 793 789 786 783 783 783 782 783 784 780 761 761 760 761 761 761 763 763 762 764 767 769 765 772 778 783 797 790 785 786 789 829 817 814 817 824 827 828 831 832
814 809 804 800 795 790 786 783 780 781 781 782 784 784 777 761 759 755 759 759 759 759 760 761 763 771 772 787 801 798 803 795 784 774 785 795 819 816 817 822 828 832 832 835 835
812 807 802 797 792 787 783 780 778 779 781 783 784 788 765 759 755 754 755 758 760 758 762 764 776 788 796 801 820 801 799 791 791 782 788 804 815 817 822 828 833 835 836 839 838
809 804 798 793 789 783 779 779 783 783 780 774 771 769 760 755 754 752 754 757 759 764 781 775 792 801 788 787 783 786 791 796 792 786 797 809 818 824 828 834 837 839 840 844 844
807 801 795 790 785 779 776 777 777 780 782 763 762 762 757 758 763 753 753 762 765 782 777 790 798 776 776 779 785 790 792 795 799 794 802 819 830 833 834 838 840 844 846 846 844
805 799 792 786 780 778 778 776 776 774 783 763 755 755 753 754 760 757 753 759 769 779 781 794 777 765 772 774 783 788 787 789 806 808 814 818 838 839 839 840 842 844 845 847 844
803 797 791 783 781 778 774 774 773 771 801 775 758 749 748 749 759 743 747 756 769 780 779 785 767 769 773 777 779 795 777 786 801 812 839 811 852 843 841 846 845 848 850 848 845
799 794 789 787 782 778 773 771 769 771 824 757 753 736 741 755 751 745 743 752 771 770 772 781 767 771 778 773 770 783 774 781 789 808 813 819 845 840 844 850 849 849 849 847 846
794 790 785 782 779 770 769 767 769 807 820 763 746 751 755 752 751 745 747 747 752 764 769 771 755 760 768 771 769 772 783 800 812 821 835 814 828 842 844 837 844 844 846 845 846
787 782 780 778 772 768 768 768 807 822 767 762 757 753 758 763 760 756 763 770 781 792 792 777 773 759 759 776 776 786 813 843 835 845 840 819 831 839 826 825 829 837 842 843 844
779 773 767 764 765 768 769 786 811 787 777 749 751 755 767 761 763 762 769 780 769 777 797 801 809 774 761 773 785 793 808 842 838 852 837 819 833 834 826 820 827 834 838 842 845
773 766 762 757 758 766 776 805 801 785 762 762 753 766 768 759 761 765 774 778 768 768 794 802 796 769 767 767 776 794 816 806 832 838 845 843 835 827 829 829 830 836 840 843 847
774 768 761 757 758 764 783 795 782 765 759 758 770 759 775 765 769 771 777 760 761 759 760 782 803 779 772 769 778 784 796 821 838 838 841 842 838 835 834 834 833 837 838 842 846
777 774 760 760 761 771 792 790 773 757 755 764 761 760 759 762 765 774 770 757 753 760 760 777 795 795 782 791 796 799 807 823 830 842 850 852 842 816 819 819 824 829 834 839 845
787 780 763 763 777 789 788 777 761 758 754 758 753 750 754 754 762 764 767 758 749 753 770 775 799 812 797 787 783 786 797 814 844 833 845 850 847 811 809 813 820 828 832 840 846
800 791 762 761 785 787 778 768 760 759 754 755 752 744 744 752 767 761 761 759 754 757 770 774 806 828 819 805 791 791 792 810 824 834 840 852 838 811 811 817 821 829 836 842 847
800 792 778 773 779 779 782 775 766 748 749 747 746 744 751 754 753 765 763 763 757 761 765 770 805 810 827 812 804 802 794 802 817 848 828 831 820 816 817 816 824 832 838 843 847
802 800 799 796 787 789 785 777 772 768 751 748 745 744 752 762 760 770 766 765 765 764 769 779 800 795 798 796 795 796 797 797 810 809 821 810 815 813 814 815 824 830 838 843 849
811 813 805 800 793 788 789 785 779 774 764 757 753 749 747 757 759 771 767 770 771 768 775 787 806 795 800 795 796 798 794 794 796 808 809 810 808 806 816 820 827 830 835 841 845
816 814 815 801 796 790 794 790 779 779 761 752 747 752 752 749 746 743 747 756 759 771 783 789 804 818 816 805 804 817 796 789 786 794 803 811 804 810 817 817 824 830 833 838 843
Wind_Speed
22 20 17 15 13 12 12 11 10 10 10 10 10 11 12 15 19 15 7 9 1 3 6 11 8 4 2 2 2 4 4 1 5 4 4 4 3 5 9 5 3 1 3 13 17
23 23 22 19 17 13 12 11 10 10 10 10 10 11 13 17 19 12 14 10 9 3 2 3 2 4 3 1 2 5 4 9 8 5 1 1 4 7 4 5 8 11 15 16 12
25 25 24 23 21 17 13 11 11 10 10 9 10 11 13 16 5 7 6 12 11 5 4 2 1 1 2 1 2 4 6 5 8 6 2 2 6 3 15 6 5 20 14 8 10
27 27 27 25 23 21 16 12 11 10 10 9 9 10 13 5 1 2 4 5 15 7 4 3 3 3 2 1 3 1 7 6 12 6 2 7 8 6 5 7 14 13 10 14 11
27 28 27 27 25 23 20 14 11 10 10 10 9 8 6 3 8 5 3 6 12 9 4 4 2 3 2 2 1 4 6 6 8 10 6 17 14 9 14 17 12 16 16 12 11
29 29 29 28 27 25 23 16 11 10 9 8 6 4 1 3 4 6 6 8 9 11 4 7 5 5 3 3 4 3 5 6 9 10 12 20 4 6 8 13 15 15 13 11 12
29 30 30 28 28 27 25 20 11 9 8 7 4 2 2 11 4 4 8 6 13 10 4 8 4 4 4 4 3 4 4 3 11 6 7 14 8 7 12 12 13 14 11 10 10
30 30 30 30 29 28 26 22 11 7 6 4 5 2 7 4 6 9 13 11 10 13 15 16 8 4 3 2 7 3 4 3 6 10 6 6 6 6 8 11 10 11 10 9 7
31 30 31 31 31 30 27 20 10 5 3 3 4 2 9 9 7 17 19 11 4 9 13 14 1 1 6 4 5 6 2 3 4 9 7 4 12 7 6 8 8 7 7 7 7
33 31 32 31 31 32 28 15 3 1 5 3 1 3 7 3 5 7 16 20 7 2 4 3 5 3 4 4 3 2 4 4 5 2 7 9 8 12 6 9 7 6 6 5 7
33 33 33 31 30 33 23 1 2 1 3 8 6 4 4 5 5 5 13 7 4 6 1 3 4 4 7 5 3 2 2 6 7 6 9 11 16 10 7 8 6 5 5 5 5
34 34 33 32 34 26 5 0 1 3 7 10 10 7 17 3 5 6 5 5 3 3 1 5 5 10 5 5 6 3 4 4 10 11 12 14 12 6 6 4 4 5 5 4 3
35 35 34 32 30 1 12 6 5 14 1 7 6 5 6 10 7 9 8 3 3 1 3 5 9 3 2 2 4 2 2 1 7 14 15 16 6 5 2 3 5 4 4 4 6
35 35 35 34 5 12 10 2 18 7 4 6 4 7 5 5 5 9 14 6 1 7 4 6 5 6 3 3 5 4 3 9 12 7 6 5 4 5 7 5 6 6 6 6 5
37 36 33 26 17 5 2 15 10 3 3 2 3 4 5 8 3 4 7 5 5 4 3 7 4 7 5 1 4 3 3 2 4 4 5 3 4 2 8 6 7 7 7 6 6
38 36 35 11 10 16 8 16 5 5 6 4 6 5 6 3 3 2 3 3 3 2 1 6 4 3 5 3 4 4 5 8 5 3 2 1 5 5 9 9 8 6 7 7 7
41 37 30 17 6 1 12 3 4 3 5 3 5 5 6 5 3 4 5 4 4 3 2 4 3 2 3 5 5 9 7 3 4 4 5 4 4 4 11 6 14 13 10 8 8
42 35 17 19 5 12 3 5 3 4 6 5 2 5 8 6 5 5 4 3 3 4 2 3 4 3 1 4 4 4 6 5 4 3 4 5 1 2 4 4 11 10 8 7 7
40 18 10 4 11 12 5 3 7 6 3 6 4 5 5 5 7 5 8 6 8 8 6 4 2 3 5 3 4 3 3 3 6 3 3 1 3 1 4 8 12 10 8 8 7
27 12 7 1 15 8 4 6 5 4 5 3 2 4 6 1 5 5 8 4 4 6 5 6 4 2 3 6 6 4 5 3 3 2 3 3 3 4 6 9 11 10 12 8 8
7 4 10 12 9 5 3 6 5 4 5 3 4 2 2 3 5 7 8 2 3 4 1 5 5 4 3 2 4 2 2 6 4 4 4 1 5 5 13 16 18 14 9 10 11
9 2 3 5 3 1 3 5 3 7 2 5 4 4 4 2 2 3 5 2 4 7 6 1 5 3 2 5 4 3 4 5 5 4 1 3 5 2 9 14 13 9 7 8 9
3 3 5 3 2 2 5 4 5 5 5 4 3 2 1 2 3 2 3 4 5 4 7 6 2 3 6 6 5 2 2 4 5 3 5 5 5 5 7 9 7 9 10 11 11
2 4 4 4 2 3 3 5 4 4 5 6 6 3 3 1 2 3 3 6 5 4 8 8 3 6 7 5 3 3 2 4 5 3 4 6 4 3 6 11 9 11 11 12 10
2 2 1 3 3 4 2 5 6 6 5 7 2 2 4 3 2 4 3 3 6 5 5 5 4 2 2 3 2 3 5 2 7 6 6 6 9 8 8 10 12 13 12 12 9
3 3 5 3 4 4 5 5 4 5 3 5 2 2 3 5 6 7 7 2 5 3 3 4 2 2 1 1 1 3 6 7 5 4 2 4 3 4 5 10 12 13 13 11 9
8 5 1 4 5 2 2 5 4 7 7 5 3 3 3 3 4 8 6 6 9 8 3 4 5 3 3 4 4 5 6 4 3 4 7 5 6 7 8 12 12 12 12 11 10
Wind_Direction
22 18 11 358 343 336 334 334 333 333 332 330 329 330 329 321 318 306 257 243 207 258 265 287 323 350 46 55 61 119 70 196 242 195 205 169 120 62 40 74 53 64 103 132 154
19 18 14 7 356 337 323 322 326 327 327 326 328 328 326 325 320 274 272 233 220 240 288 313 337 13 27 81 61 92 125 217 217 213 308 59 144 140 107 89 86 95 104 131 144
16 12 11 8 3 351 328 312 313 316 318 321 323 323 326 328 325 252 336 205 201 217 251 265 221 74 65 72 196 159 203 215 255 226 193 88 119 82 131 75 137 145 140 121 87
11 9 6 4 2 359 345 318 304 305 307 310 313 317 326 336 191 268 324 210 198 222 222 150 71 75 47 242 212 195 240 211 271 106 251 176 120 84 13 121 134 120 101 79 65
6 4 2 0 359 358 352 333 308 301 301 304 298 303 330 328 251 262 265 166 185 205 197 171 134 150 217 211 154 214 262 237 260 92 64 93 71 109 85 108 101 86 75 69 68
0 359 357 356 354 353 353 343 314 299 304 307 298 289 55 290 303 289 225 185 193 194 190 187 202 190 261 237 170 228 266 274 84 97 113 103 47 94 86 99 94 83 72 68 67
355 353 352 351 350 348 348 344 318 294 301 302 269 204 135 243 284 277 223 220 205 192 197 228 206 138 178 287 235 277 322 25 129 126 118 92 31 73 116 105 98 95 94 79 67
349 347 346 345 344 343 343 337 316 281 287 298 182 162 251 272 276 259 231 252 234 228 241 268 243 206 182 294 0 2 46 42 156 169 175 75 148 129 115 111 109 106 93 82 74
347 343 341 340 340 337 337 332 307 259 252 156 148 184 268 298 245 239 228 224 268 245 251 264 180 72 17 69 0 5 248 256 280 184 119 105 144 163 129 112 91 78 75 77 80
345 341 338 336 336 333 333 328 282 185 131 145 244 331 274 265 251 218 227 228 254 2 5 68 52 56 35 73 208 264 343 300 245 108 78 117 130 136 110 95 89 78 67 46 58
343 339 336 333 334 328 326 249 10 346 202 201 194 247 277 287 276 261 208 181 193 65 161 359 63 242 225 197 220 223 233 260 39 106 70 106 126 125 105 98 91 64 50 49 50
343 339 334 332 333 326 348 142 119 1 299 235 243 254 266 294 317 299 189 152 112 203 57 10 249 242 224 210 219 185 242 77 81 42 86 112 94 72 90 96 144 160 184 186 150
342 340 334 330 330 340 330 272 312 325 231 290 199 192 222 156 224 250 154 144 136 155 202 181 244 22 153 317 114 42 67 63 125 71 92 100 78 147 94 129 147 184 207 215 173
340 339 336 332 331 326 294 219 336 168 43 274 226 249 167 172 276 211 182 136 158 207 232 222 278 216 9 206 129 98 182 119 134 103 165 222 187 197 171 175 181 184 200 212 188
337 336 332 334 297 281 291 321 339 120 343 208 209 183 127 151 220 235 162 66 186 218 103 265 331 113 104 48 129 165 123 84 125 123 114 160 98 256 147 199 192 194 220 212 184
334 331 327 321 279 282 307 336 122 47 256 300 150 174 118 157 265 33 128 92 176 155 304 249 297 118 126 58 58 107 77 41 54 92 72 306 146 198 184 193 183 187 209 185 159
331 324 313 280 234 231 329 35 52 161 315 243 190 146 166 178 225 186 179 172 162 109 345 325 352 359 120 92 27 68 54 359 352 4 216 330 83 226 207 191 181 169 178 171 155
329 323 301 261 218 246 334 59 175 242 258 320 275 129 176 162 230 214 147 196 218 104 103 111 356 349 350 129 138 83 131 149 209 226 266 353 47 232 278 187 135 159 171 159 150
333 325 288 284 210 202 87 116 205 213 284 336 347 138 225 199 180 144 189 206 185 168 142 130 359 327 55 95 108 161 57 166 103 24 36 209 314 269 79 113 145 158 159 176 139
333 323 283 181 150 139 86 217 225 225 355 314 261 166 183 269 153 155 179 223 214 192 142 197 99 345 21 57 29 98 154 58 15 204 270 290 252 236 192 176 165 171 180 165 141
340 348 356 159 156 54 172 227 265 276 352 328 299 197 149 140 197 191 208 284 176 105 125 127 107 271 41 58 176 29 48 54 109 129 173 247 261 221 196 188 182 183 181 156 147
348 346 42 195 54 32 164 201 256 294 203 274 250 207 174 195 58 122 164 210 193 154 116 102 122 119 176 306 271 157 158 135 121 225 132 146 272 346 211 183 174 179 154 126 125
334 272 359 339 143 283 295 285 244 239 245 242 263 208 201 186 109 107 75 348 28 88 157 181 30 63 360 355 351 109 130 99 108 84 187 139 260 3 107 145 159 136 129 133 133
0 353 327 31 43 89 359 269 279 248 261 230 203 129 102 323 73 141 106 12 13 72 73 85 106 153 183 187 176 284 299 140 125 118 194 211 204 239 170 161 135 131 135 137 137
31 332 146 337 341 352 310 324 334 347 341 345 35 99 158 151 95 108 81 97 15 4 57 96 124 139 143 163 191 226 252 217 198 207 164 234 193 208 193 164 152 140 135 137 144
34 15 347 293 296 349 4 8 336 315 284 312 358 317 165 161 165 191 135 149 175 37 76 12 149 91 348 269 181 250 265 263 222 123 77 112 230 150 107 112 138 152 150 153 160
357 349 65 296 338 48 23 324 316 329 275 231 228 114 84 253 227 202 169 140 159 141 118 99 124 85 250 346 360 323 238 237 174 150 145 169 213 150 145 156 160 157 162 163 165